Time,TemperatureF,DewpointF,PressureIn,WindDirection,WindDirectionDegrees,WindSpeedMPH,WindSpeedGustMPH,Humidity,HourlyPrecipIn,Conditions,Clouds,dailyrainin,SoftwareType,DateUTC
2013-08-10 00:00:00,63.0,42.0,29.96,WNW,292,0.0,5.0,46,0.00,,,0.00,Rainwise IP-100,2013-08-10 04:00:00,
2013-08-10 00:01:00,63.0,42.0,29.96,WNW,292,0.0,5.0,46,0.00,,,0.00,Rainwise IP-100,2013-08-10 04:01:00,
2013-08-10 00:06:00,63.0,42.0,29.96,WSW,247,0.0,4.0,46,0.00,,,0.00,Rainwise IP-100,2013-08-10 04:06:00,
2013-08-10 00:11:00,63.0,42.0,29.95,NW,315,1.0,0.0,46,0.00,,,0.00,Rainwise IP-100,2013-08-10 04:11:00,
2013-08-10 00:16:00,63.0,42.0,29.95,WSW,247,0.0,4.0,47,0.00,,,0.00,Rainwise IP-100,2013-08-10 04:16:00,
2013-08-10 00:21:00,63.0,42.0,29.95,NW,315,0.0,3.0,47,0.00,,,0.00,Rainwise IP-100,2013-08-10 04:21:00,
2013-08-10 00:26:00,63.0,42.0,29.95,WNW,292,2.0,2.0,47,0.00,,,0.00,Rainwise IP-100,2013-08-10 04:26:00,
2013-08-10 00:31:00,63.0,42.0,29.96,WNW,292,0.0,6.0,46,0.00,,,0.00,Rainwise IP-100,2013-08-10 04:31:00,
2013-08-10 00:36:00,64.0,43.0,29.96,NW,315,1.0,6.0,46,0.00,,,0.00,Rainwise IP-100,2013-08-10 04:36:00,
2013-08-10 00:41:00,64.0,43.0,29.96,WNW,292,2.0,8.0,46,0.00,,,0.00,Rainwise IP-100,2013-08-10 04:41:00,
2013-08-10 00:46:00,64.0,43.0,29.96,WNW,292,0.0,6.0,46,0.00,,,0.00,Rainwise IP-100,2013-08-10 04:46:00,
2013-08-10 00:51:00,64.0,43.0,29.96,WNW,292,3.0,8.0,46,0.00,,,0.00,Rainwise IP-100,2013-08-10 04:51:00,
2013-08-10 00:56:00,64.0,43.0,29.96,NNW,337,1.0,6.0,46,0.00,,,0.00,Rainwise IP-100,2013-08-10 04:56:00,
2013-08-10 01:01:00,64.0,42.0,29.96,WNW,292,2.0,7.0,45,0.00,,,0.00,Rainwise IP-100,2013-08-10 05:01:00,
2013-08-10 01:06:00,64.0,42.0,29.96,NW,315,0.0,6.0,45,0.00,,,0.00,Rainwise IP-100,2013-08-10 05:06:00,
2013-08-10 01:11:00,63.0,41.0,29.96,WNW,292,0.0,6.0,45,0.00,,,0.00,Rainwise IP-100,2013-08-10 05:11:00,
2013-08-10 01:16:00,63.0,41.0,29.96,NW,315,1.0,4.0,45,0.00,,,0.00,Rainwise IP-100,2013-08-10 05:16:00,
2013-08-10 01:21:00,63.0,41.0,29.96,NNW,337,0.0,4.0,45,0.00,,,0.00,Rainwise IP-100,2013-08-10 05:21:00,
2013-08-10 01:26:00,63.0,41.0,29.96,NW,315,0.0,6.0,45,0.00,,,0.00,Rainwise IP-100,2013-08-10 05:26:00,
2013-08-10 01:31:00,63.0,41.0,29.96,WNW,292,2.0,5.0,45,0.00,,,0.00,Rainwise IP-100,2013-08-10 05:31:00,
2013-08-10 01:36:00,63.0,41.0,29.96,WNW,292,5.0,5.0,45,0.00,,,0.00,Rainwise IP-100,2013-08-10 05:36:00,
2013-08-10 01:41:00,63.0,41.0,29.96,WNW,292,0.0,9.0,45,0.00,,,0.00,Rainwise IP-100,2013-08-10 05:41:00,
2013-08-10 01:46:00,63.0,41.0,29.96,WNW,292,2.0,6.0,45,0.00,,,0.00,Rainwise IP-100,2013-08-10 05:46:00,
2013-08-10 01:51:00,63.0,41.0,29.96,WNW,292,5.0,7.0,45,0.00,,,0.00,Rainwise IP-100,2013-08-10 05:51:00,
2013-08-10 01:56:00,63.0,41.0,29.97,NW,315,1.0,6.0,45,0.00,,,0.00,Rainwise IP-100,2013-08-10 05:56:00,
2013-08-10 02:01:00,63.0,41.0,29.97,WSW,247,0.0,3.0,45,0.00,,,0.00,Rainwise IP-100,2013-08-10 06:01:00,
2013-08-10 02:06:00,63.0,41.0,29.98,North,360,0.0,5.0,45,0.00,,,0.00,Rainwise IP-100,2013-08-10 06:06:00,
2013-08-10 02:11:00,63.0,41.0,29.98,WSW,247,0.0,5.0,45,0.00,,,0.00,Rainwise IP-100,2013-08-10 06:11:00,
2013-08-10 02:16:00,64.0,42.0,29.98,WNW,292,0.0,0.0,45,0.00,,,0.00,Rainwise IP-100,2013-08-10 06:16:00,
2013-08-10 02:21:00,64.0,42.0,29.98,SW,225,0.0,2.0,45,0.00,,,0.00,Rainwise IP-100,2013-08-10 06:21:00,
2013-08-10 02:26:00,64.0,42.0,29.98,WSW,247,0.0,0.0,45,0.00,,,0.00,Rainwise IP-100,2013-08-10 06:26:00,
2013-08-10 02:31:00,64.0,42.0,29.98,WSW,247,0.0,0.0,45,0.00,,,0.00,Rainwise IP-100,2013-08-10 06:31:00,
2013-08-10 02:36:00,64.0,42.0,29.98,SW,225,0.0,0.0,45,0.00,,,0.00,Rainwise IP-100,2013-08-10 06:36:00,
2013-08-10 02:41:00,64.0,42.0,29.98,SW,225,0.0,0.0,45,0.00,,,0.00,Rainwise IP-100,2013-08-10 06:41:00,
2013-08-10 02:46:00,64.0,42.0,29.99,SSW,202,0.0,0.0,45,0.00,,,0.00,Rainwise IP-100,2013-08-10 06:46:00,
2013-08-10 02:51:00,64.0,42.0,29.99,WSW,247,0.0,4.0,45,0.00,,,0.00,Rainwise IP-100,2013-08-10 06:51:00,
2013-08-10 02:56:00,64.0,42.0,29.98,WSW,247,0.0,0.0,45,0.00,,,0.00,Rainwise IP-100,2013-08-10 06:56:00,
2013-08-10 03:01:00,64.0,42.0,29.99,WNW,292,0.0,0.0,45,0.00,,,0.00,Rainwise IP-100,2013-08-10 07:01:00,
2013-08-10 03:06:00,64.0,42.0,29.99,WNW,292,0.0,4.0,45,0.00,,,0.00,Rainwise IP-100,2013-08-10 07:06:00,
2013-08-10 03:11:00,63.0,41.0,29.99,SSW,202,0.0,0.0,45,0.00,,,0.00,Rainwise IP-100,2013-08-10 07:11:00,
2013-08-10 03:16:00,63.0,41.0,29.99,SSW,202,0.0,0.0,45,0.00,,,0.00,Rainwise IP-100,2013-08-10 07:16:00,
2013-08-10 03:21:00,63.0,41.0,29.99,SSW,202,0.0,0.0,45,0.00,,,0.00,Rainwise IP-100,2013-08-10 07:21:00,
2013-08-10 03:26:00,63.0,41.0,29.99,SSW,202,0.0,0.0,45,0.00,,,0.00,Rainwise IP-100,2013-08-10 07:26:00,
2013-08-10 03:31:00,63.0,41.0,29.99,North,360,0.0,0.0,45,0.00,,,0.00,Rainwise IP-100,2013-08-10 07:31:00,
2013-08-10 03:36:00,63.0,41.0,29.99,North,360,0.0,0.0,45,0.00,,,0.00,Rainwise IP-100,2013-08-10 07:36:00,
2013-08-10 03:41:00,63.0,41.0,29.98,SW,225,0.0,3.0,45,0.00,,,0.00,Rainwise IP-100,2013-08-10 07:41:00,
2013-08-10 03:46:00,63.0,41.0,29.99,NW,315,0.0,0.0,45,0.00,,,0.00,Rainwise IP-100,2013-08-10 07:46:00,
2013-08-10 03:51:00,63.0,41.0,29.99,NW,315,0.0,0.0,45,0.00,,,0.00,Rainwise IP-100,2013-08-10 07:51:00,
2013-08-10 03:56:00,63.0,41.0,29.99,WSW,247,0.0,0.0,45,0.00,,,0.00,Rainwise IP-100,2013-08-10 07:56:00,
2013-08-10 04:01:00,63.0,41.0,29.99,WSW,247,0.0,0.0,45,0.00,,,0.00,Rainwise IP-100,2013-08-10 08:01:00,
2013-08-10 04:06:00,63.0,41.0,29.99,WSW,247,0.0,0.0,45,0.00,,,0.00,Rainwise IP-100,2013-08-10 08:06:00,
2013-08-10 04:11:00,63.0,41.0,29.99,SSW,202,0.0,0.0,45,0.00,,,0.00,Rainwise IP-100,2013-08-10 08:11:00,
2013-08-10 04:16:00,63.0,41.0,30.00,SSW,202,0.0,0.0,45,0.00,,,0.00,Rainwise IP-100,2013-08-10 08:16:00,
2013-08-10 04:21:00,63.0,41.0,30.00,SSW,202,0.0,0.0,45,0.00,,,0.00,Rainwise IP-100,2013-08-10 08:21:00,
2013-08-10 04:26:00,63.0,41.0,30.00,SSW,202,0.0,0.0,45,0.00,,,0.00,Rainwise IP-100,2013-08-10 08:26:00,
2013-08-10 04:31:00,63.0,41.0,30.00,SSW,202,0.0,0.0,45,0.00,,,0.00,Rainwise IP-100,2013-08-10 08:31:00,
2013-08-10 04:36:00,63.0,41.0,30.00,South,180,0.0,0.0,45,0.00,,,0.00,Rainwise IP-100,2013-08-10 08:36:00,
2013-08-10 04:41:00,63.0,41.0,30.00,South,180,0.0,0.0,45,0.00,,,0.00,Rainwise IP-100,2013-08-10 08:41:00,
2013-08-10 04:46:00,62.0,40.0,30.00,South,180,0.0,0.0,45,0.00,,,0.00,Rainwise IP-100,2013-08-10 08:46:00,
2013-08-10 04:51:00,62.0,40.0,30.00,South,180,0.0,0.0,45,0.00,,,0.00,Rainwise IP-100,2013-08-10 08:51:00,
2013-08-10 04:56:00,62.0,40.0,30.00,South,180,0.0,0.0,45,0.00,,,0.00,Rainwise IP-100,2013-08-10 08:56:00,
2013-08-10 05:01:00,62.0,40.0,30.00,South,180,0.0,0.0,45,0.00,,,0.00,Rainwise IP-100,2013-08-10 09:01:00,
2013-08-10 05:06:00,62.0,40.0,30.00,South,180,0.0,0.0,45,0.00,,,0.00,Rainwise IP-100,2013-08-10 09:06:00,
2013-08-10 05:11:00,62.0,40.0,30.00,South,180,0.0,0.0,45,0.00,,,0.00,Rainwise IP-100,2013-08-10 09:11:00,
2013-08-10 05:16:00,62.0,40.0,30.00,South,180,0.0,0.0,45,0.00,,,0.00,Rainwise IP-100,2013-08-10 09:16:00,
2013-08-10 05:21:00,62.0,40.0,30.00,South,180,0.0,0.0,45,0.00,,,0.00,Rainwise IP-100,2013-08-10 09:21:00,
2013-08-10 05:26:00,62.0,40.0,30.01,SSE,157,1.0,3.0,45,0.00,,,0.00,Rainwise IP-100,2013-08-10 09:26:00,
2013-08-10 05:31:00,62.0,40.0,30.01,SSE,157,0.0,2.0,45,0.00,,,0.00,Rainwise IP-100,2013-08-10 09:31:00,
2013-08-10 05:36:00,62.0,40.0,30.01,SSE,157,0.0,0.0,45,0.00,,,0.00,Rainwise IP-100,2013-08-10 09:36:00,
2013-08-10 05:41:00,62.0,40.0,30.01,SSE,157,0.0,0.0,45,0.00,,,0.00,Rainwise IP-100,2013-08-10 09:41:00,
2013-08-10 05:46:00,62.0,40.0,30.01,SSE,157,0.0,0.0,45,0.00,,,0.00,Rainwise IP-100,2013-08-10 09:46:00,
2013-08-10 05:51:00,62.0,40.0,30.01,SSE,157,0.0,0.0,45,0.00,,,0.00,Rainwise IP-100,2013-08-10 09:51:00,
2013-08-10 05:56:00,62.0,40.0,30.01,SSE,157,0.0,0.0,45,0.00,,,0.00,Rainwise IP-100,2013-08-10 09:56:00,
2013-08-10 06:01:00,62.0,40.0,30.01,SSE,157,0.0,0.0,45,0.00,,,0.00,Rainwise IP-100,2013-08-10 10:01:00,
2013-08-10 06:06:00,62.0,40.0,30.01,SSE,157,0.0,0.0,45,0.00,,,0.00,Rainwise IP-100,2013-08-10 10:06:00,
2013-08-10 06:11:00,62.0,40.0,30.02,SSE,157,0.0,0.0,45,0.00,,,0.00,Rainwise IP-100,2013-08-10 10:11:00,
2013-08-10 06:16:00,62.0,40.0,30.02,SSE,157,0.0,0.0,45,0.00,,,0.00,Rainwise IP-100,2013-08-10 10:16:00,
2013-08-10 06:21:00,62.0,40.0,30.02,SSE,157,0.0,0.0,45,0.00,,,0.00,Rainwise IP-100,2013-08-10 10:21:00,
2013-08-10 06:26:00,61.0,39.0,30.02,SSE,157,0.0,0.0,45,0.00,,,0.00,Rainwise IP-100,2013-08-10 10:26:00,
2013-08-10 06:31:00,61.0,39.0,30.02,SSE,157,0.0,0.0,45,0.00,,,0.00,Rainwise IP-100,2013-08-10 10:31:00,
2013-08-10 06:36:00,62.0,40.0,30.02,SSE,157,0.0,0.0,45,0.00,,,0.00,Rainwise IP-100,2013-08-10 10:36:00,
2013-08-10 06:41:00,62.0,40.0,30.02,SSE,157,0.0,0.0,45,0.00,,,0.00,Rainwise IP-100,2013-08-10 10:41:00,
2013-08-10 06:46:00,62.0,40.0,30.02,SSE,157,0.0,0.0,45,0.00,,,0.00,Rainwise IP-100,2013-08-10 10:46:00,
2013-08-10 06:51:00,62.0,40.0,30.02,SSE,157,0.0,0.0,45,0.00,,,0.00,Rainwise IP-100,2013-08-10 10:51:00,
2013-08-10 06:56:00,62.0,40.0,30.02,SSE,157,0.0,0.0,45,0.00,,,0.00,Rainwise IP-100,2013-08-10 10:56:00,
2013-08-10 07:01:00,62.0,40.0,30.03,SSE,157,0.0,0.0,45,0.00,,,0.00,Rainwise IP-100,2013-08-10 11:01:00,
2013-08-10 07:06:00,62.0,40.0,30.03,SSE,157,0.0,0.0,45,0.00,,,0.00,Rainwise IP-100,2013-08-10 11:06:00,
2013-08-10 07:11:00,63.0,41.0,30.03,SSE,157,0.0,0.0,45,0.00,,,0.00,Rainwise IP-100,2013-08-10 11:11:00,
2013-08-10 07:16:00,63.0,41.0,30.03,SSE,157,0.0,0.0,44,0.00,,,0.00,Rainwise IP-100,2013-08-10 11:16:00,
2013-08-10 07:21:00,63.0,41.0,30.03,SSE,157,0.0,0.0,44,0.00,,,0.00,Rainwise IP-100,2013-08-10 11:21:00,
2013-08-10 07:26:00,64.0,41.0,30.03,SSE,157,0.0,0.0,44,0.00,,,0.00,Rainwise IP-100,2013-08-10 11:26:00,
2013-08-10 07:31:00,64.0,41.0,30.03,SSE,157,0.0,0.0,44,0.00,,,0.00,Rainwise IP-100,2013-08-10 11:31:00,
2013-08-10 07:36:00,65.0,42.0,30.04,SSE,157,0.0,0.0,44,0.00,,,0.00,Rainwise IP-100,2013-08-10 11:36:00,
2013-08-10 07:41:00,66.0,43.0,30.03,SSE,157,0.0,0.0,44,0.00,,,0.00,Rainwise IP-100,2013-08-10 11:41:00,
2013-08-10 07:46:00,66.0,43.0,30.04,SSE,157,0.0,0.0,44,0.00,,,0.00,Rainwise IP-100,2013-08-10 11:46:00,
2013-08-10 07:51:00,65.0,43.0,30.04,SSE,157,3.0,5.0,45,0.00,,,0.00,Rainwise IP-100,2013-08-10 11:51:00,
2013-08-10 07:56:00,67.0,45.0,30.04,WSW,247,0.0,4.0,45,0.00,,,0.00,Rainwise IP-100,2013-08-10 11:56:00,
2013-08-10 08:01:00,68.0,46.0,30.04,NNE,22,0.0,3.0,45,0.00,,,0.00,Rainwise IP-100,2013-08-10 12:01:00,
2013-08-10 08:06:00,69.0,46.0,30.04,ESE,112,0.0,0.0,44,0.00,,,0.00,Rainwise IP-100,2013-08-10 12:06:00,
2013-08-10 08:11:00,69.0,46.0,30.04,SW,225,0.0,4.0,44,0.00,,,0.00,Rainwise IP-100,2013-08-10 12:11:00,
2013-08-10 08:16:00,70.0,47.0,30.04,SSW,202,0.0,2.0,43,0.00,,,0.00,Rainwise IP-100,2013-08-10 12:16:00,
2013-08-10 08:21:00,70.0,47.0,30.04,SW,225,0.0,5.0,45,0.00,,,0.00,Rainwise IP-100,2013-08-10 12:21:00,
2013-08-10 08:26:00,71.0,51.0,30.05,WNW,292,0.0,5.0,50,0.00,,,0.00,Rainwise IP-100,2013-08-10 12:26:00,
2013-08-10 08:31:00,72.0,57.0,30.05,NW,315,0.0,3.0,59,0.00,,,0.00,Rainwise IP-100,2013-08-10 12:31:00,
2013-08-10 08:36:00,72.0,61.0,30.05,WNW,292,0.0,6.0,68,0.00,,,0.00,Rainwise IP-100,2013-08-10 12:36:00,
2013-08-10 08:41:00,72.0,62.0,30.05,WNW,292,6.0,7.0,72,0.00,,,0.00,Rainwise IP-100,2013-08-10 12:41:00,
2013-08-10 08:46:00,72.0,63.0,30.05,WNW,292,2.0,7.0,74,0.00,,,0.00,Rainwise IP-100,2013-08-10 12:46:00,
2013-08-10 08:51:00,73.0,65.0,30.05,WNW,292,3.0,5.0,75,0.00,,,0.00,Rainwise IP-100,2013-08-10 12:51:00,
2013-08-10 08:56:00,74.0,66.0,30.05,West,270,0.0,8.0,75,0.00,,,0.00,Rainwise IP-100,2013-08-10 12:56:00,
2013-08-10 09:01:00,74.0,66.0,30.05,West,270,0.0,6.0,75,0.00,,,0.00,Rainwise IP-100,2013-08-10 13:01:00,
2013-08-10 09:06:00,75.0,67.0,30.06,WNW,292,0.0,6.0,76,0.00,,,0.00,Rainwise IP-100,2013-08-10 13:06:00,
2013-08-10 09:11:00,75.0,67.0,30.06,WSW,247,1.0,7.0,76,0.00,,,0.00,Rainwise IP-100,2013-08-10 13:11:00,
2013-08-10 09:16:00,76.0,68.0,30.06,WNW,292,0.0,7.0,77,0.00,,,0.00,Rainwise IP-100,2013-08-10 13:16:00,
2013-08-10 09:21:00,76.0,68.0,30.06,NW,315,0.0,7.0,77,0.00,,,0.00,Rainwise IP-100,2013-08-10 13:21:00,
2013-08-10 09:26:00,76.0,68.0,30.06,WNW,292,7.0,7.0,78,0.00,,,0.00,Rainwise IP-100,2013-08-10 13:26:00,
2013-08-10 09:31:00,76.0,68.0,30.06,West,270,2.0,10.0,78,0.00,,,0.00,Rainwise IP-100,2013-08-10 13:31:00,
2013-08-10 09:36:00,76.0,68.0,30.06,WSW,247,0.0,10.0,78,0.00,,,0.00,Rainwise IP-100,2013-08-10 13:36:00,
2013-08-10 09:41:00,75.0,67.0,30.06,West,270,0.0,10.0,77,0.00,,,0.00,Rainwise IP-100,2013-08-10 13:41:00,
2013-08-10 09:46:00,76.0,68.0,30.06,West,270,9.0,9.0,78,0.00,,,0.00,Rainwise IP-100,2013-08-10 13:46:00,
2013-08-10 09:51:00,76.0,68.0,30.06,SW,225,3.0,9.0,78,0.00,,,0.00,Rainwise IP-100,2013-08-10 13:51:00,
2013-08-10 09:56:00,76.0,68.0,30.06,West,270,0.0,7.0,78,0.00,,,0.00,Rainwise IP-100,2013-08-10 13:56:00,
2013-08-10 10:01:00,75.0,67.0,30.06,WSW,247,0.0,11.0,77,0.00,,,0.00,Rainwise IP-100,2013-08-10 14:01:00,
2013-08-10 10:06:00,76.0,68.0,30.06,SW,225,5.0,10.0,78,0.00,,,0.00,Rainwise IP-100,2013-08-10 14:06:00,
2013-08-10 10:11:00,75.0,67.0,30.06,West,270,5.0,15.0,77,0.00,,,0.00,Rainwise IP-100,2013-08-10 14:11:00,
2013-08-10 10:16:00,75.0,67.0,30.06,SW,225,3.0,9.0,76,0.00,,,0.00,Rainwise IP-100,2013-08-10 14:16:00,
2013-08-10 10:21:00,76.0,68.0,30.06,WNW,292,3.0,10.0,78,0.00,,,0.00,Rainwise IP-100,2013-08-10 14:21:00,
2013-08-10 10:26:00,76.0,68.0,30.06,WNW,292,4.0,10.0,78,0.00,,,0.00,Rainwise IP-100,2013-08-10 14:26:00,
2013-08-10 10:31:00,76.0,68.0,30.06,NNW,337,3.0,9.0,77,0.00,,,0.00,Rainwise IP-100,2013-08-10 14:31:00,
2013-08-10 10:36:00,76.0,68.0,30.06,WNW,292,4.0,11.0,77,0.00,,,0.00,Rainwise IP-100,2013-08-10 14:36:00,
2013-08-10 10:41:00,75.0,67.0,30.06,WNW,292,3.0,13.0,76,0.00,,,0.00,Rainwise IP-100,2013-08-10 14:41:00,
2013-08-10 10:46:00,75.0,67.0,30.06,WNW,292,3.0,13.0,76,0.00,,,0.00,Rainwise IP-100,2013-08-10 14:46:00,
2013-08-10 10:51:00,75.0,67.0,30.06,WNW,292,6.0,9.0,76,0.00,,,0.00,Rainwise IP-100,2013-08-10 14:51:00,
2013-08-10 10:56:00,76.0,68.0,30.06,SW,225,0.0,11.0,78,0.00,,,0.00,Rainwise IP-100,2013-08-10 14:56:00,
2013-08-10 11:01:00,76.0,68.0,30.06,WNW,292,0.0,6.0,77,0.00,,,0.00,Rainwise IP-100,2013-08-10 15:01:00,
2013-08-10 11:05:00,76.0,68.0,30.06,WSW,247,10.0,16.0,77,0.00,,,0.00,Rainwise IP-100,2013-08-10 15:05:00,
2013-08-10 11:10:00,75.0,67.0,30.06,WSW,247,5.0,13.0,77,0.00,,,0.00,Rainwise IP-100,2013-08-10 15:10:00,
2013-08-10 11:15:00,75.0,67.0,30.07,NW,315,4.0,16.0,77,0.00,,,0.00,Rainwise IP-100,2013-08-10 15:15:00,
2013-08-10 11:20:00,76.0,68.0,30.07,West,270,2.0,7.0,78,0.00,,,0.00,Rainwise IP-100,2013-08-10 15:20:00,
2013-08-10 11:25:00,76.0,68.0,30.06,WNW,292,4.0,10.0,78,0.00,,,0.00,Rainwise IP-100,2013-08-10 15:25:00,
2013-08-10 11:30:00,75.0,67.0,30.06,WNW,292,3.0,13.0,77,0.00,,,0.00,Rainwise IP-100,2013-08-10 15:30:00,
2013-08-10 11:35:00,75.0,67.0,30.07,NW,315,1.0,17.0,77,0.00,,,0.00,Rainwise IP-100,2013-08-10 15:35:00,
2013-08-10 11:40:00,75.0,67.0,30.07,West,270,0.0,10.0,77,0.00,,,0.00,Rainwise IP-100,2013-08-10 15:40:00,
2013-08-10 11:45:00,75.0,67.0,30.07,West,270,5.0,12.0,77,0.00,,,0.00,Rainwise IP-100,2013-08-10 15:45:00,
2013-08-10 11:50:00,75.0,67.0,30.07,WNW,292,4.0,16.0,77,0.00,,,0.00,Rainwise IP-100,2013-08-10 15:50:00,
2013-08-10 11:55:00,75.0,67.0,30.07,West,270,7.0,12.0,77,0.00,,,0.00,Rainwise IP-100,2013-08-10 15:55:00,
2013-08-10 12:00:00,75.0,67.0,30.07,WSW,247,0.0,10.0,77,0.00,,,0.00,Rainwise IP-100,2013-08-10 16:00:00,
2013-08-10 12:05:00,76.0,68.0,30.07,WNW,292,4.0,10.0,78,0.00,,,0.00,Rainwise IP-100,2013-08-10 16:05:00,
2013-08-10 12:10:00,75.0,67.0,30.07,NW,315,2.0,13.0,77,0.00,,,0.00,Rainwise IP-100,2013-08-10 16:10:00,
2013-08-10 12:15:00,75.0,67.0,30.07,NW,315,8.0,14.0,77,0.00,,,0.00,Rainwise IP-100,2013-08-10 16:15:00,
2013-08-10 12:20:00,75.0,67.0,30.07,WNW,292,2.0,15.0,77,0.00,,,0.00,Rainwise IP-100,2013-08-10 16:20:00,
2013-08-10 12:25:00,75.0,67.0,30.07,WNW,292,0.0,11.0,77,0.00,,,0.00,Rainwise IP-100,2013-08-10 16:25:00,
2013-08-10 12:30:00,75.0,67.0,30.07,NW,315,10.0,10.0,77,0.00,,,0.00,Rainwise IP-100,2013-08-10 16:30:00,
2013-08-10 12:35:00,75.0,67.0,30.08,WNW,292,5.0,10.0,77,0.00,,,0.00,Rainwise IP-100,2013-08-10 16:35:00,
2013-08-10 12:40:00,75.0,67.0,30.07,NW,315,1.0,10.0,77,0.00,,,0.00,Rainwise IP-100,2013-08-10 16:40:00,
2013-08-10 12:45:00,75.0,67.0,30.08,NNW,337,4.0,13.0,77,0.00,,,0.00,Rainwise IP-100,2013-08-10 16:45:00,
2013-08-10 12:50:00,76.0,68.0,30.08,WNW,292,0.0,8.0,78,0.00,,,0.00,Rainwise IP-100,2013-08-10 16:50:00,
2013-08-10 12:55:00,76.0,68.0,30.08,WNW,292,9.0,12.0,78,0.00,,,0.00,Rainwise IP-100,2013-08-10 16:55:00,
2013-08-10 13:00:00,75.0,67.0,30.08,WSW,247,6.0,14.0,77,0.00,,,0.00,Rainwise IP-100,2013-08-10 17:00:00,
2013-08-10 13:05:00,75.0,67.0,30.08,West,270,3.0,10.0,77,0.00,,,0.00,Rainwise IP-100,2013-08-10 17:05:00,
2013-08-10 13:10:00,75.0,67.0,30.08,West,270,7.0,13.0,77,0.00,,,0.00,Rainwise IP-100,2013-08-10 17:10:00,
2013-08-10 13:15:00,75.0,67.0,30.08,West,270,0.0,12.0,77,0.00,,,0.00,Rainwise IP-100,2013-08-10 17:15:00,
2013-08-10 13:20:00,75.0,67.0,30.08,WNW,292,2.0,10.0,77,0.00,,,0.00,Rainwise IP-100,2013-08-10 17:20:00,
2013-08-10 13:25:00,76.0,68.0,30.08,NNW,337,0.0,10.0,78,0.00,,,0.00,Rainwise IP-100,2013-08-10 17:25:00,
2013-08-10 13:30:00,76.0,68.0,30.08,WNW,292,0.0,9.0,78,0.00,,,0.00,Rainwise IP-100,2013-08-10 17:30:00,
2013-08-10 13:35:00,76.0,68.0,30.08,WNW,292,8.0,12.0,78,0.00,,,0.00,Rainwise IP-100,2013-08-10 17:35:00,
2013-08-10 13:40:00,76.0,68.0,30.08,West,270,0.0,9.0,78,0.00,,,0.00,Rainwise IP-100,2013-08-10 17:40:00,
2013-08-10 13:45:00,75.0,67.0,30.08,WNW,292,7.0,12.0,77,0.00,,,0.00,Rainwise IP-100,2013-08-10 17:45:00,
2013-08-10 13:50:00,76.0,68.0,30.08,NW,315,0.0,10.0,78,0.00,,,0.00,Rainwise IP-100,2013-08-10 17:50:00,
2013-08-10 13:55:00,76.0,68.0,30.08,NW,315,0.0,8.0,78,0.00,,,0.00,Rainwise IP-100,2013-08-10 17:55:00,
2013-08-10 14:00:00,77.0,69.0,30.08,WNW,292,0.0,7.0,78,0.00,,,0.00,Rainwise IP-100,2013-08-10 18:00:00,
2013-08-10 14:05:00,76.0,68.0,30.08,WNW,292,4.0,13.0,78,0.00,,,0.00,Rainwise IP-100,2013-08-10 18:05:00,
2013-08-10 14:10:00,76.0,68.0,30.08,SW,225,9.0,11.0,78,0.00,,,0.00,Rainwise IP-100,2013-08-10 18:10:00,
2013-08-10 14:15:00,76.0,68.0,30.08,WNW,292,5.0,10.0,78,0.00,,,0.00,Rainwise IP-100,2013-08-10 18:15:00,
2013-08-10 14:20:00,76.0,68.0,30.08,NW,315,2.0,10.0,78,0.00,,,0.00,Rainwise IP-100,2013-08-10 18:20:00,
2013-08-10 14:25:00,76.0,68.0,30.08,WNW,292,0.0,10.0,78,0.00,,,0.00,Rainwise IP-100,2013-08-10 18:25:00,
2013-08-10 14:30:00,76.0,68.0,30.08,West,270,6.0,10.0,78,0.00,,,0.00,Rainwise IP-100,2013-08-10 18:30:00,
2013-08-10 14:35:00,76.0,68.0,30.08,WNW,292,0.0,10.0,78,0.00,,,0.00,Rainwise IP-100,2013-08-10 18:35:00,
2013-08-10 14:40:00,76.0,68.0,30.08,WNW,292,0.0,11.0,78,0.00,,,0.00,Rainwise IP-100,2013-08-10 18:40:00,
2013-08-10 14:45:00,76.0,68.0,30.09,West,270,6.0,9.0,78,0.00,,,0.00,Rainwise IP-100,2013-08-10 18:45:00,
2013-08-10 14:50:00,75.0,67.0,30.09,WNW,292,2.0,9.0,77,0.00,,,0.00,Rainwise IP-100,2013-08-10 18:50:00,
2013-08-10 14:55:00,75.0,67.0,30.08,NW,315,6.0,7.0,77,0.00,,,0.00,Rainwise IP-100,2013-08-10 18:55:00,
2013-08-10 15:00:00,75.0,67.0,30.08,NW,315,1.0,12.0,77,0.00,,,0.00,Rainwise IP-100,2013-08-10 19:00:00,
2013-08-10 15:05:00,75.0,67.0,30.08,SW,225,0.0,12.0,77,0.00,,,0.00,Rainwise IP-100,2013-08-10 19:05:00,
2013-08-10 15:10:00,76.0,68.0,30.09,WNW,292,3.0,10.0,78,0.00,,,0.00,Rainwise IP-100,2013-08-10 19:10:00,
2013-08-10 15:15:00,76.0,68.0,30.09,WNW,292,7.0,9.0,78,0.00,,,0.00,Rainwise IP-100,2013-08-10 19:15:00,
2013-08-10 15:20:00,76.0,68.0,30.09,WNW,292,6.0,10.0,78,0.00,,,0.00,Rainwise IP-100,2013-08-10 19:20:00,
2013-08-10 15:25:00,76.0,68.0,30.09,WNW,292,8.0,14.0,78,0.00,,,0.00,Rainwise IP-100,2013-08-10 19:25:00,
2013-08-10 15:30:00,76.0,68.0,30.09,WNW,292,1.0,15.0,78,0.00,,,0.00,Rainwise IP-100,2013-08-10 19:30:00,
2013-08-10 15:35:00,75.0,67.0,30.09,NNW,337,8.0,15.0,77,0.00,,,0.00,Rainwise IP-100,2013-08-10 19:35:00,
2013-08-10 15:40:00,75.0,67.0,30.10,NNW,337,3.0,10.0,77,0.00,,,0.00,Rainwise IP-100,2013-08-10 19:40:00,
2013-08-10 15:45:00,76.0,68.0,30.10,WNW,292,10.0,12.0,78,0.00,,,0.00,Rainwise IP-100,2013-08-10 19:45:00,
2013-08-10 15:50:00,75.0,67.0,30.10,WNW,292,3.0,13.0,77,0.00,,,0.00,Rainwise IP-100,2013-08-10 19:50:00,
2013-08-10 15:55:00,75.0,67.0,30.10,West,270,0.0,12.0,77,0.00,,,0.00,Rainwise IP-100,2013-08-10 19:55:00,
2013-08-10 16:00:00,75.0,67.0,30.10,NW,315,3.0,15.0,77,0.00,,,0.00,Rainwise IP-100,2013-08-10 20:00:00,
2013-08-10 16:05:00,75.0,67.0,30.10,WNW,292,3.0,13.0,77,0.00,,,0.00,Rainwise IP-100,2013-08-10 20:05:00,
2013-08-10 16:10:00,75.0,67.0,30.10,WNW,292,4.0,12.0,77,0.00,,,0.00,Rainwise IP-100,2013-08-10 20:10:00,
2013-08-10 16:15:00,75.0,67.0,30.10,WNW,292,10.0,13.0,77,0.00,,,0.00,Rainwise IP-100,2013-08-10 20:15:00,
2013-08-10 16:20:00,75.0,67.0,30.10,West,270,1.0,13.0,77,0.00,,,0.00,Rainwise IP-100,2013-08-10 20:20:00,
2013-08-10 16:25:00,76.0,68.0,30.10,WNW,292,3.0,9.0,78,0.00,,,0.00,Rainwise IP-100,2013-08-10 20:25:00,
2013-08-10 16:30:00,75.0,67.0,30.11,WNW,292,5.0,19.0,77,0.00,,,0.00,Rainwise IP-100,2013-08-10 20:30:00,
2013-08-10 16:35:00,75.0,67.0,30.11,NW,315,2.0,11.0,77,0.00,,,0.00,Rainwise IP-100,2013-08-10 20:35:00,
2013-08-10 16:40:00,75.0,67.0,30.12,WNW,292,10.0,10.0,77,0.00,,,0.00,Rainwise IP-100,2013-08-10 20:40:00,
2013-08-10 16:45:00,75.0,67.0,30.12,West,270,0.0,13.0,77,0.00,,,0.00,Rainwise IP-100,2013-08-10 20:45:00,
2013-08-10 16:50:00,75.0,67.0,30.12,WNW,292,6.0,16.0,77,0.00,,,0.00,Rainwise IP-100,2013-08-10 20:50:00,
2013-08-10 16:55:00,75.0,67.0,30.12,West,270,4.0,10.0,77,0.00,,,0.00,Rainwise IP-100,2013-08-10 20:55:00,
2013-08-10 17:00:00,75.0,67.0,30.12,WNW,292,10.0,12.0,77,0.00,,,0.00,Rainwise IP-100,2013-08-10 21:00:00,
2013-08-10 17:05:00,75.0,67.0,30.12,West,270,7.0,15.0,77,0.00,,,0.00,Rainwise IP-100,2013-08-10 21:05:00,
2013-08-10 17:10:00,74.0,66.0,30.12,WNW,292,3.0,12.0,77,0.00,,,0.00,Rainwise IP-100,2013-08-10 21:10:00,
2013-08-10 17:15:00,74.0,66.0,30.12,WNW,292,2.0,8.0,77,0.00,,,0.00,Rainwise IP-100,2013-08-10 21:15:00,
2013-08-10 17:20:00,73.0,65.0,30.12,NW,315,3.0,10.0,77,0.00,,,0.00,Rainwise IP-100,2013-08-10 21:20:00,
2013-08-10 17:25:00,73.0,65.0,30.12,WNW,292,1.0,6.0,77,0.00,,,0.00,Rainwise IP-100,2013-08-10 21:25:00,
2013-08-10 17:30:00,73.0,65.0,30.12,WNW,292,1.0,6.0,77,0.00,,,0.00,Rainwise IP-100,2013-08-10 21:30:00,
2013-08-10 17:35:00,73.0,65.0,30.12,WNW,292,2.0,7.0,77,0.00,,,0.00,Rainwise IP-100,2013-08-10 21:35:00,
2013-08-10 17:40:00,72.0,64.0,30.12,NNW,337,0.0,10.0,77,0.00,,,0.00,Rainwise IP-100,2013-08-10 21:40:00,
2013-08-10 17:45:00,72.0,64.0,30.12,WSW,247,2.0,9.0,77,0.00,,,0.00,Rainwise IP-100,2013-08-10 21:45:00,
2013-08-10 17:50:00,72.0,64.0,30.12,NW,315,2.0,7.0,77,0.00,,,0.00,Rainwise IP-100,2013-08-10 21:50:00,
2013-08-10 17:55:00,72.0,64.0,30.13,WNW,292,2.0,9.0,77,0.00,,,0.00,Rainwise IP-100,2013-08-10 21:55:00,
2013-08-10 18:00:00,72.0,64.0,30.13,NW,315,0.0,5.0,77,0.00,,,0.00,Rainwise IP-100,2013-08-10 22:00:00,
2013-08-10 18:05:00,72.0,64.0,30.13,WSW,247,2.0,8.0,77,0.00,,,0.00,Rainwise IP-100,2013-08-10 22:05:00,
2013-08-10 18:10:00,72.0,64.0,30.13,NW,315,7.0,9.0,77,0.00,,,0.00,Rainwise IP-100,2013-08-10 22:10:00,
2013-08-10 18:15:00,71.0,63.0,30.13,North,360,10.0,10.0,77,0.00,,,0.00,Rainwise IP-100,2013-08-10 22:15:00,
2013-08-10 18:20:00,71.0,63.0,30.13,WNW,292,4.0,15.0,77,0.00,,,0.00,Rainwise IP-100,2013-08-10 22:20:00,
2013-08-10 18:25:00,71.0,63.0,30.13,NW,315,7.0,14.0,77,0.00,,,0.00,Rainwise IP-100,2013-08-10 22:25:00,
2013-08-10 18:30:00,71.0,63.0,30.14,WNW,292,2.0,16.0,77,0.00,,,0.00,Rainwise IP-100,2013-08-10 22:30:00,
2013-08-10 18:35:00,70.0,62.0,30.14,WNW,292,4.0,13.0,77,0.00,,,0.00,Rainwise IP-100,2013-08-10 22:35:00,
2013-08-10 18:40:00,70.0,62.0,30.14,WNW,292,6.0,13.0,77,0.00,,,0.00,Rainwise IP-100,2013-08-10 22:40:00,
2013-08-10 18:45:00,70.0,62.0,30.14,NW,315,3.0,14.0,77,0.00,,,0.00,Rainwise IP-100,2013-08-10 22:45:00,
2013-08-10 18:50:00,69.0,61.0,30.15,WNW,292,6.0,11.0,76,0.00,,,0.00,Rainwise IP-100,2013-08-10 22:50:00,
2013-08-10 18:55:00,69.0,61.0,30.15,WNW,292,9.0,12.0,76,0.00,,,0.00,Rainwise IP-100,2013-08-10 22:55:00,
2013-08-10 19:00:00,69.0,61.0,30.15,NW,315,5.0,13.0,76,0.00,,,0.00,Rainwise IP-100,2013-08-10 23:00:00,
2013-08-10 19:05:00,68.0,60.0,30.15,WNW,292,4.0,10.0,76,0.00,,,0.00,Rainwise IP-100,2013-08-10 23:05:00,
2013-08-10 19:10:00,68.0,60.0,30.15,WNW,292,3.0,8.0,76,0.00,,,0.00,Rainwise IP-100,2013-08-10 23:10:00,
2013-08-10 19:15:00,68.0,60.0,30.16,NW,315,3.0,10.0,76,0.00,,,0.00,Rainwise IP-100,2013-08-10 23:15:00,
2013-08-10 19:20:00,68.0,60.0,30.16,WNW,292,6.0,13.0,76,0.00,,,0.00,Rainwise IP-100,2013-08-10 23:20:00,
2013-08-10 19:25:00,67.0,59.0,30.16,NW,315,1.0,9.0,76,0.00,,,0.00,Rainwise IP-100,2013-08-10 23:25:00,
2013-08-10 19:30:00,67.0,59.0,30.17,NW,315,5.0,8.0,76,0.00,,,0.00,Rainwise IP-100,2013-08-10 23:30:00,
2013-08-10 19:35:00,67.0,59.0,30.17,NNW,337,1.0,7.0,76,0.00,,,0.00,Rainwise IP-100,2013-08-10 23:35:00,
2013-08-10 19:40:00,66.0,58.0,30.17,NNW,337,2.0,7.0,76,0.00,,,0.00,Rainwise IP-100,2013-08-10 23:40:00,
2013-08-10 19:45:00,66.0,58.0,30.17,WNW,292,0.0,7.0,76,0.00,,,0.00,Rainwise IP-100,2013-08-10 23:45:00,
2013-08-10 19:50:00,65.0,57.0,30.17,NW,315,2.0,5.0,76,0.00,,,0.00,Rainwise IP-100,2013-08-10 23:50:00,
2013-08-10 19:55:00,65.0,57.0,30.18,WNW,292,1.0,7.0,76,0.00,,,0.00,Rainwise IP-100,2013-08-10 23:55:00,
2013-08-10 20:00:00,65.0,57.0,30.18,NW,315,3.0,9.0,76,0.00,,,0.00,Rainwise IP-100,2013-08-11 00:00:00,
2013-08-10 20:05:00,65.0,57.0,30.18,WNW,292,4.0,6.0,76,0.00,,,0.00,Rainwise IP-100,2013-08-11 00:05:00,
2013-08-10 20:10:00,64.0,56.0,30.18,NW,315,3.0,6.0,76,0.00,,,0.00,Rainwise IP-100,2013-08-11 00:10:00,
2013-08-10 20:15:00,64.0,56.0,30.18,WNW,292,1.0,5.0,76,0.00,,,0.00,Rainwise IP-100,2013-08-11 00:15:00,
2013-08-10 20:20:00,64.0,56.0,30.18,WNW,292,1.0,6.0,76,0.00,,,0.00,Rainwise IP-100,2013-08-11 00:20:00,
2013-08-10 20:25:00,63.0,55.0,30.19,North,360,2.0,6.0,75,0.00,,,0.00,Rainwise IP-100,2013-08-11 00:25:00,
2013-08-10 20:30:00,63.0,55.0,30.19,NNW,337,2.0,5.0,75,0.00,,,0.00,Rainwise IP-100,2013-08-11 00:30:00,
2013-08-10 20:35:00,63.0,55.0,30.19,North,360,0.0,5.0,75,0.00,,,0.00,Rainwise IP-100,2013-08-11 00:35:00,
2013-08-10 20:40:00,62.0,54.0,30.20,NNW,337,0.0,3.0,75,0.00,,,0.00,Rainwise IP-100,2013-08-11 00:40:00,
2013-08-10 20:45:00,62.0,54.0,30.20,WNW,292,1.0,6.0,75,0.00,,,0.00,Rainwise IP-100,2013-08-11 00:45:00,
2013-08-10 20:50:00,62.0,54.0,30.20,WNW,292,5.0,6.0,75,0.00,,,0.00,Rainwise IP-100,2013-08-11 00:50:00,
2013-08-10 20:55:00,62.0,54.0,30.20,NW,315,4.0,7.0,75,0.00,,,0.00,Rainwise IP-100,2013-08-11 00:55:00,
2013-08-10 21:00:00,62.0,54.0,30.20,WNW,292,3.0,7.0,75,0.00,,,0.00,Rainwise IP-100,2013-08-11 01:00:00,
2013-08-10 21:05:00,61.0,53.0,30.20,WNW,292,3.0,6.0,75,0.00,,,0.00,Rainwise IP-100,2013-08-11 01:05:00,
2013-08-10 21:10:00,61.0,53.0,30.21,NNW,337,0.0,3.0,75,0.00,,,0.00,Rainwise IP-100,2013-08-11 01:10:00,
2013-08-10 21:15:00,61.0,53.0,30.21,NNW,337,0.0,2.0,75,0.00,,,0.00,Rainwise IP-100,2013-08-11 01:15:00,
2013-08-10 21:20:00,60.0,52.0,30.21,WSW,247,2.0,2.0,75,0.00,,,0.00,Rainwise IP-100,2013-08-11 01:20:00,
2013-08-10 21:25:00,61.0,53.0,30.21,WNW,292,3.0,6.0,75,0.00,,,0.00,Rainwise IP-100,2013-08-11 01:25:00,
2013-08-10 21:30:00,61.0,53.0,30.20,WNW,292,3.0,9.0,75,0.00,,,0.00,Rainwise IP-100,2013-08-11 01:30:00,
2013-08-10 21:35:00,61.0,53.0,30.21,WNW,292,7.0,8.0,75,0.00,,,0.00,Rainwise IP-100,2013-08-11 01:35:00,
2013-08-10 21:40:00,61.0,53.0,30.20,WNW,292,4.0,7.0,75,0.00,,,0.00,Rainwise IP-100,2013-08-11 01:40:00,
2013-08-10 21:45:00,61.0,53.0,30.21,WNW,292,6.0,8.0,75,0.00,,,0.00,Rainwise IP-100,2013-08-11 01:45:00,
2013-08-10 21:50:00,61.0,53.0,30.21,WNW,292,0.0,6.0,75,0.00,,,0.00,Rainwise IP-100,2013-08-11 01:50:00,
2013-08-10 21:55:00,60.0,52.0,30.21,WNW,292,0.0,3.0,75,0.00,,,0.00,Rainwise IP-100,2013-08-11 01:55:00,
2013-08-10 22:00:00,60.0,52.0,30.21,WNW,292,0.0,3.0,75,0.00,,,0.00,Rainwise IP-100,2013-08-11 02:00:00,
2013-08-10 22:05:00,59.0,51.0,30.21,WNW,292,2.0,2.0,75,0.00,,,0.00,Rainwise IP-100,2013-08-11 02:05:00,
2013-08-10 22:10:00,59.0,51.0,30.21,WNW,292,2.0,5.0,75,0.00,,,0.00,Rainwise IP-100,2013-08-11 02:10:00,
2013-08-10 22:15:00,59.0,51.0,30.21,WNW,292,2.0,6.0,75,0.00,,,0.00,Rainwise IP-100,2013-08-11 02:15:00,
2013-08-10 22:20:00,59.0,51.0,30.21,WNW,292,3.0,7.0,75,0.00,,,0.00,Rainwise IP-100,2013-08-11 02:20:00,
2013-08-10 22:25:00,59.0,51.0,30.21,WNW,292,0.0,7.0,75,0.00,,,0.00,Rainwise IP-100,2013-08-11 02:25:00,
2013-08-10 22:30:00,59.0,51.0,30.21,WNW,292,0.0,4.0,75,0.00,,,0.00,Rainwise IP-100,2013-08-11 02:30:00,
2013-08-10 22:35:00,59.0,51.0,30.21,WNW,292,1.0,5.0,75,0.00,,,0.00,Rainwise IP-100,2013-08-11 02:35:00,
2013-08-10 22:40:00,58.0,50.0,30.21,WNW,292,2.0,5.0,74,0.00,,,0.00,Rainwise IP-100,2013-08-11 02:40:00,
2013-08-10 22:45:00,58.0,50.0,30.21,WNW,292,6.0,6.0,74,0.00,,,0.00,Rainwise IP-100,2013-08-11 02:45:00,
2013-08-10 22:50:00,58.0,50.0,30.21,WNW,292,3.0,6.0,74,0.00,,,0.00,Rainwise IP-100,2013-08-11 02:50:00,
2013-08-10 22:55:00,58.0,50.0,30.21,WNW,292,0.0,4.0,74,0.00,,,0.00,Rainwise IP-100,2013-08-11 02:55:00,
2013-08-10 23:00:00,58.0,50.0,30.21,WNW,292,0.0,0.0,74,0.00,,,0.00,Rainwise IP-100,2013-08-11 03:00:00,
2013-08-10 23:05:00,57.0,49.0,30.21,WNW,292,0.0,0.0,74,0.00,,,0.00,Rainwise IP-100,2013-08-11 03:05:00,
2013-08-10 23:10:00,57.0,49.0,30.21,WNW,292,0.0,2.0,74,0.00,,,0.00,Rainwise IP-100,2013-08-11 03:10:00,
2013-08-10 23:15:00,57.0,49.0,30.21,WNW,292,0.0,3.0,74,0.00,,,0.00,Rainwise IP-100,2013-08-11 03:15:00,
2013-08-10 23:20:00,57.0,49.0,30.21,WNW,292,1.0,4.0,74,0.00,,,0.00,Rainwise IP-100,2013-08-11 03:20:00,
2013-08-10 23:25:00,57.0,49.0,30.21,NNW,337,5.0,6.0,74,0.00,,,0.00,Rainwise IP-100,2013-08-11 03:25:00,
2013-08-10 23:30:00,57.0,49.0,30.21,WNW,292,2.0,6.0,74,0.00,,,0.00,Rainwise IP-100,2013-08-11 03:30:00,
2013-08-10 23:35:00,56.0,47.0,30.21,WNW,292,2.0,6.0,74,0.00,,,0.00,Rainwise IP-100,2013-08-11 03:35:00,
2013-08-10 23:40:00,56.0,47.0,30.21,WNW,292,3.0,5.0,74,0.00,,,0.00,Rainwise IP-100,2013-08-11 03:40:00,
2013-08-10 23:45:00,56.0,47.0,30.21,WNW,292,2.0,6.0,74,0.00,,,0.00,Rainwise IP-100,2013-08-11 03:45:00,
2013-08-10 23:50:00,56.0,47.0,30.21,WNW,292,1.0,5.0,74,0.00,,,0.00,Rainwise IP-100,2013-08-11 03:50:00,
2013-08-10 23:55:00,56.0,47.0,30.21,WNW,292,5.0,5.0,74,0.00,,,0.00,Rainwise IP-100,2013-08-11 03:55:00,